MINXSS-2

Satellite information

Favourite Embed

Satellite Type and Status

PAYLOADIN ORBIT

Key statistics

Satellite MINXSS-2 at a glance.

Uptime

2470

Days in orbit

Revolutions

≈ 15.3

Per day

Orbit

SSO

Sun Synchronous Orbit

Inclination

97.5

Latest

Satellite identification and parameters

Extended collection of information and parameters for MINXSS-2.

Object identification

Identified? True

Debris? False

Object name: MINXSS-2

International designator: 2018-099A

Object number (NORAD): 43758

Object ID (CCSDS): 43758

Country: UNITED STATES OF AMERICA (US)

Current information (Y/N): Y

RCS size: MEDIUM

Orbital parameters

Period: 94.21 minutes

Inclination: 97.4942 deg

SMA: 6858.427 km

Apoapsis: 487.982 km

Periapsis: 472.601 km

RAAN: 316.3589 deg

Eccentricy: 0.00112134

Argument of periapsis: 194.5521 deg

Mean anomaly: 165.5397 deg

Mean motion: 15.28502004 rev/day

Mean motion (dot): 0.00031718 rev/day2

B* drag term: 0.001140624 1/REarth

Two-line elements (TLE)

Creation date: Sept. 7, 2025, 3:09 a.m.

Reference frame: TEME

Reference center: EARTH

Epoch: Sept. 6, 2025, 9:54 p.m. UTC

TLE line 0: 0 MINXSS-2

TLE line 1: 1 43758U 18099A 25249.91303734 .00031718 00000-0 11406-2 0 9990

TLE line 2: 2 43758 97.4942 316.3589 0011213 194.5521 165.5397 15.28502004370603

Live tracking on map

Real-time ground track for satellite MINXSS-2.

In-orbit conjunctions

There are no conjunctions computed for MINXSS-2, at the moment. Check back to stay up to date, as we update our databases every day.

Go to all conjunctions

Associated space launch

Dedicated rideshare launching payloads into sun-synchronous orbit. Payloads include ORS-6, EU:CROPIS, STPSat-5, BlackSky Global-1 to -4, HawkEye Pathfinder 1-3, Iceye, NEXTSat-1, 2 SkySats, Centauri II, and a Flock of Doves.

MINXSS-2 was lifted into orbit during the mission ‘Falcon 9 Block 5 | Spaceflight SSO-A’, on board a Falcon 9 space rocket.

The launch took place on Dec. 3, 2018, 6:34 p.m. from Space Launch Complex 4E.

For more information about the launch, click the button.

Launch to space Falcon 9 Block 5 | Spaceflight SSO-A
Falcon 9 Block 5 | Spaceflight SSO-A

Agency: N/A

Status: Launch Successful

Launch date: Dec. 3, 2018, 6:34 p.m. UTC

Rocket: Falcon 9

Launch pad: Space Launch Complex 4E

Location: Vandenberg SFB, CA, USA

...

Latest news about this satellite

There are no fresh news available about this satellite. Check back as we update our databases every day.


Newsletter sign-up

Weekly statistics, charts and insights to help you stay on top of the space industry.